Location: Montebello
(37.3256°N, 122.1789°W)
Time: 15:34:09
(UTC-08:00)

Envisat - Visible Passes

Search period start: 19 February 2018 00:00
Search period end: 01 March 2018 00:00
Orbit: 764 x 766 km, 98.2° (Epoch: 19 February)

Date Brightness Start Highest point End Pass type
(mag) Time Alt. Az. Time Alt. Az. Time Alt. Az.
19 Feb 3.9 18:49:01 10° SE 18:53:15 28° ENE 18:57:31 10° NNE visible
19 Feb 4.7 20:27:40 10° SSW 20:32:08 31° W 20:36:38 10° NW visible
20 Feb 3.1 19:50:15 10° S 19:55:19 73° WSW 20:00:24 10° NNW visible
21 Feb 3.2 19:13:49 10° SE 19:18:40 48° ENE 19:23:33 10° N visible
21 Feb 5.5 20:54:38 10° SW 20:57:55 17° W 21:01:13 10° NW visible
22 Feb 4.1 18:38:24 10° ESE 18:42:14 22° ENE 18:46:04 10° NNE visible
22 Feb 4.2 20:16:13 10° SSW 20:20:57 40° W 20:25:43 10° NNW visible
23 Feb 2.9 19:39:06 10° SSE 19:44:11 88° ENE 19:49:17 10° NNW visible
24 Feb 3.5 19:02:56 10° SE 19:07:35 38° ENE 19:12:16 10° N visible
24 Feb 5.2 20:42:48 10° SW 20:46:41 22° W 20:50:36 10° NW visible
25 Feb 4.4 18:27:56 10° ESE 18:31:13 18° ENE 18:34:30 10° NNE visible
25 Feb 3.7 20:04:52 10° S 20:09:47 51° W 20:14:44 10° NNW visible
26 Feb 2.9 19:28:02 10° SSE 19:33:04 69° ENE 19:38:07 10° N visible
26 Feb 5.9 21:10:42 10° WSW 21:12:31 12° W 21:14:21 10° WNW visible
27 Feb 3.8 18:52:10 10° SE 18:56:32 30° ENE 19:00:55 10° N visible
27 Feb 4.8 20:31:09 10° SSW 20:35:29 28° W 20:39:50 10° NW visible
28 Feb 3.3 19:53:36 10° S 19:58:38 66° W 20:03:41 10° NNW visible
